AirNav   Air Wisconsin pilot careers
 
 960 users online  

2VA Zangger Vintage Airpark
Larchwood, Iowa, USA

GOING TO LARCHWOOD?


FAA INFORMATION EFFECTIVE 09 NOVEMBER 2017

Location

FAA Identifier: 2VA
Lat/Long: 43-26-58.5450N / 096-24-09.1650W
43-26.975750N / 096-24.152750W
43.4495958 / -96.4025458
(estimated)
Elevation: 1476 ft. / 449.9 m (surveyed)
Variation: 06E (1985)
From city: 2 miles E of LARCHWOOD, IA
Time zone: UTC -6 (UTC -5 during Daylight Saving Time)
Zip code: 51241

Airport Operations

Airport use: Open to the public
Activation date: 10/1953
Control tower: no
ARTCC: MINNEAPOLIS CENTER
FSS: FORT DODGE FLIGHT SERVICE STATION
NOTAMs facility: FOD (NOTAM-D service available)
Attendance: ON CALL
MANAGER LIVES ONSITE 605-370-1139
Wind indicator: yes
Segmented circle: no
Lights: ACTVT LIRL RY 12/30 - 122.9.

Airport Communications

CTAF: 122.9
WX AWOS-3 at LYV (13 nm NE): 119.825 (507-283-5027)
WX ASOS at FSD (17 nm NW): PHONE 605-331-7833

Nearby radio navigation aids

VOR radial/distance  VOR name  Freq  Var
FSDr117/20.4SIOUX FALLS VORTAC115.0009E
OTGr244/37.6WORTHINGTON VOR/DME110.6008E

 
NDB name  Hdg/Dist  Freq  Var  ID
SIOUX CENTER329/21.136805ESOY ... --- -.--
SIBLEY275/28.826905EISB .. ... -...

Airport Services

Airframe service: NONE
Powerplant service: NONE

Runway Information

Runway 12/30

Dimensions: 2000 x 100 ft. / 610 x 30 m
Surface: turf, in good condition
Runway edge lights: low intensity
Runway edge markings: MKD WITH YELLOW CONES.
RUNWAY 12  RUNWAY 30
Latitude: 43-27.077333N43-26.874167N
Longitude: 096-24.330500W096-23.975000W
Elevation: 1476.0 ft.1443.0 ft.
Gradient: 1.7% UP
Traffic pattern: leftleft
Runway heading: 122 magnetic, 128 true302 magnetic, 308 true
Touchdown point: yes, no lightsyes, no lights
Obstructions: 31 ft. tree, 465 ft. from runway, 120 ft. right of centerline, 15:1 slope to clear115 ft. bldg, 2990 ft. from runway, 50 ft. right of centerline, 26:1 slope to clear
SILO

Airport Ownership and Management from official FAA records

Ownership: Privately-owned
Owner: JIM ZANGGER
1351 AIRPORT ROAD NORTH
LARCHWOOD, IA 51241
Phone 712-477-2230
Manager: JIM ZANGGER
1351 AIRPORT ROAD NORTH
LARCHWOOD, IA 51241
Phone 712-477-2230

Airport Operational Statistics

Aircraft based on the field: 21
Single engine airplanes: 20
Ultralights: 1
    
Aircraft operations: avg 67/month *
50% transient general aviation
50% local general aviation
* for 12-month period ending 21 November 2016

Additional Remarks

ARPT CLSD DEC- FEB NO SNOW REMOVAL.
THE UNMKD HARD SFC PAVEMENT THAT INTERSECTS TURF RY 12/30 IS AN ASPH TWY.

Instrument Procedures

There are no published instrument procedures at 2VA.

Some nearby airports with instrument procedures:

KRRQ - Rock Rapids Municipal Airport (10 nm E)
KLYV - Quentin Aanenson Field Airport (13 nm NE)
KFSD - Joe Foss Field Airport (17 nm NW)
KSOY - Sioux Center Municipal Airport (21 nm SE)
KISB - Sibley Municipal Airport (28 nm E)
 
Loc | Ops | Rwys | IFR | FBO | Links
Com | Nav | Svcs | Stats | Notes


 
Area around 2VA (Zangger Vintage Airpark)
 
Road maps at: MapQuest Bing Google
 
Aerial photo
WARNING: Photo may not be current or correct
Aerial photo of 2VA (Zangger Vintage Airpark)
Taken in September 2005

Do you have a better or more recent aerial photo of Zangger Vintage Airpark that you would like to share? If so, please send us your photo.

 
Sectional chart

 
Airport distance calculator
Flying to Zangger Vintage Airpark? Find the distance to fly.

From to 2VA

Sunrise and sunset
Times for 24-Nov-2017
 Local
(UTC-6)
 Zulu
(UTC)
Morning civil twilight07:0013:00
Sunrise07:3213:32
Sunset16:5322:53
Evening civil twilight17:2523:25

Current date and time
Zulu (UTC)  24-Nov-2017 18:54:48
Local (UTC-6)  24-Nov-2017 12:54:48
 
METAR
7G9 
11nm SW 
SuperAWOS
241755Z AUTO 32016G21KT 10SM 17/06 A2961
KLYV 
13nm NE 
241839Z AUTO 32024G32KT 10SM SCT070 SCT110 16/02 A2952 RMK AO2
KFSD 
17nm NW 
241756Z 33024G33KT 10SM SCT100 18/06 A2953 RMK AO2 PK WND 33033/1756 RAE20 SLP998 P0000 60000 T01780056 10178 20028 53029
Y14 
17nm W 
SuperAWOS
241815Z AUTO 32019G29KT 10SM 17/07 A2953
TAF
KFSD 
17nm NW 
241722Z 2418/2518 32020G30KT P6SM BKN100 FM250000 32011KT P6SM SKC FM250300 31007KT P6SM SKC FM250900 28006KT P6SM SKC
NOTAMs
Click for the latest NOTAMs
NOTAMs are issued by the DoD/FAA and will open in a separate window not controlled by AirNav.

 

 
 

Would you like to see your business listed on this page?

 If your business provides an interesting product or service to pilots, flight crews, aircraft, or users of the Zangger Vintage Airpark, you should consider listing it here.  To start the listing process, click on the button below
 
Add a business
 

Other Pages about Zangger Vintage Airpark

Update a link
 
Copyright © AirNav, LLC. All rights reserved. Privacy Policy  Contact